RH
12 13 12 13 14 14 15 17 20 16 17 17 13 15 14 13 15 14 15 15 16 15 14 14 14 16 15 15 15 15 15 17 17 19 30 28 29 38 40 43 43 42 41 41 43 43 43 44 45 44 43 46 49 51 47 45 45 44 44 41 37 36 39 38 35 34 34 32 29 28 28 29 29 29 30 30 31 31 31 31 30 32 35 38 40 40 39 39 34 27 23 20 17 16 16 16 16
12 13 12 13 14 16 16 16 21 17 15 16 12 15 13 11 14 15 16 16 17 17 16 16 16 17 17 16 15 15 18 19 17 19 26 26 30 37 38 42 42 41 41 41 42 41 41 41 42 42 40 42 42 41 40 39 38 37 35 30 28 28 31 29 28 30 30 27 24 24 24 24 24 24 24 25 25 26 27 27 27 30 31 33 38 39 36 36 33 23 18 17 15 16 15 15 16
13 13 12 14 15 16 15 15 19 16 14 15 12 12 12 12 15 15 16 17 17 17 17 17 16 18 17 17 16 16 20 20 19 21 25 28 30 32 36 41 41 40 39 40 42 42 42 39 39 39 38 39 38 35 34 32 30 30 28 24 23 23 24 23 22 24 26 26 24 23 23 23 22 21 21 21 21 22 22 24 29 31 31 33 38 38 37 37 31 20 16 16 16 16 16 16 16
13 12 12 15 16 15 15 15 16 14 14 13 14 11 10 14 14 14 15 16 17 17 17 17 16 18 17 17 17 17 20 21 22 25 27 28 27 29 35 38 39 39 37 38 39 40 42 39 38 38 37 38 37 35 33 30 29 27 26 24 21 21 22 20 20 21 22 23 23 22 22 21 21 19 19 20 20 20 20 25 30 31 32 37 39 37 37 34 27 21 17 17 16 16 16 16 17
12 12 11 14 18 16 14 13 12 15 14 12 14 11 10 14 12 13 15 16 17 17 17 16 16 16 16 17 17 17 21 21 23 27 29 29 27 29 31 32 37 37 35 38 38 37 39 38 37 38 38 38 37 38 37 34 31 28 26 24 21 20 20 19 19 19 20 20 21 21 19 18 17 16 15 17 18 18 20 26 31 34 37 41 40 38 36 30 28 27 23 21 19 17 17 17 17
12 12 11 13 16 15 14 15 13 14 12 10 13 11 10 12 11 13 14 16 16 17 16 16 16 15 16 17 16 18 20 20 23 28 31 31 30 30 28 28 36 37 34 38 39 39 38 36 36 37 39 39 38 39 38 36 33 28 25 24 21 21 20 19 18 17 18 19 18 18 18 16 13 11 10 11 13 15 19 24 28 33 38 39 38 38 36 32 32 31 27 24 20 16 16 16 15
13 14 12 13 14 13 17 18 15 13 11 10 11 10 9 10 10 12 13 15 15 15 15 15 15 15 17 17 17 17 18 21 25 27 29 30 29 28 26 27 38 38 35 37 39 41 38 35 35 37 39 41 40 40 40 38 33 28 25 24 23 24 23 20 18 18 18 19 18 17 16 16 14 10 8 8 8 12 18 22 26 31 34 33 33 33 33 33 32 29 24 19 14 13 14 13 13
12 14 13 14 14 13 15 15 12 12 12 10 9 9 9 9 10 11 11 13 14 14 15 15 15 17 17 16 18 19 18 21 24 25 25 26 25 26 27 29 38 40 38 38 40 41 36 34 36 37 39 42 41 41 42 39 35 29 25 26 26 26 26 23 20 20 19 19 19 18 16 16 16 12 9 8 7 9 16 21 26 31 32 30 30 31 30 30 30 26 19 13 11 12 11 12 12
12 13 12 13 15 13 13 12 11 11 11 10 9 9 9 9 9 10 10 11 12 13 14 15 16 17 16 15 18 21 20 19 20 22 23 24 22 26 30 31 37 39 36 37 40 41 36 35 39 39 40 42 41 42 43 40 37 32 27 27 28 28 28 25 23 22 21 20 20 19 19 19 18 16 12 10 9 9 13 19 24 30 31 30 30 30 29 28 26 19 13 11 11 11 11 12 12
11 12 13 13 15 15 14 12 12 11 10 10 9 8 9 8 9 9 9 10 10 11 13 14 15 16 15 15 18 21 20 18 18 21 22 23 22 27 34 33 36 35 33 35 36 40 38 38 40 41 42 42 42 43 43 40 39 35 29 28 28 29 29 27 25 24 22 20 20 20 20 20 20 19 16 12 10 10 10 14 20 24 26 26 27 27 27 25 19 12 11 11 11 12 12 13 13
11 12 12 12 14 17 16 13 12 11 9 9 10 9 9 8 8 8 8 10 10 11 12 13 13 14 14 14 17 20 18 16 19 21 22 23 23 28 34 35 36 34 34 33 34 38 40 39 41 42 44 45 44 43 43 42 41 38 34 31 29 28 29 29 27 27 25 23 21 21 21 21 21 19 18 15 11 10 9 9 12 14 14 15 16 17 18 16 12 11 12 12 12 12 12 13 13
12 12 11 12 15 17 16 13 11 10 8 9 9 10 9 8 8 8 8 9 9 10 11 12 12 13 13 13 17 18 15 17 20 20 21 23 23 28 34 35 35 34 34 33 33 35 37 39 40 41 45 47 44 43 44 42 41 40 39 35 30 28 28 30 29 28 28 26 24 22 21 21 21 20 19 17 14 11 9 8 8 8 9 9 10 11 11 11 11 12 12 12 12 12 12 12 13
12 13 11 12 15 14 12 11 11 10 10 9 9 10 10 8 8 7 7 8 8 9 10 11 12 13 13 14 16 16 16 17 18 18 19 21 23 28 33 35 34 34 35 34 34 34 35 36 38 39 42 45 44 46 45 42 43 42 40 37 31 29 29 30 29 28 29 28 27 24 22 23 23 23 21 20 18 15 12 10 8 8 8 9 10 10 11 11 12 12 12 12 12 12 13 14 15
11 12 11 13 13 12 11 11 11 10 10 10 8 9 9 8 8 7 7 7 8 8 10 11 11 13 13 14 15 16 17 16 15 16 17 19 22 26 31 35 34 34 35 34 35 35 35 35 37 38 38 44 47 49 47 43 42 40 43 44 37 31 29 30 28 28 29 28 28 26 24 25 25 25 25 23 22 21 19 16 14 12 11 11 11 11 12 12 12 13 13 14 14 15 17 18 19
10 10 11 13 13 11 10 11 11 10 11 10 9 9 9 8 8 8 7 8 9 9 10 10 11 13 13 14 16 18 17 14 14 16 17 17 20 24 30 35 36 35 34 34 35 35 35 35 37 37 36 43 50 54 51 45 39 40 48 51 44 36 30 29 29 28 28 28 28 27 26 25 26 27 27 26 25 25 24 23 21 20 18 17 16 15 15 15 15 15 16 17 18 19 21 22 23
9 10 11 11 12 11 11 11 10 9 10 10 9 10 9 9 8 8 8 8 9 9 10 11 11 12 13 14 16 19 16 13 14 15 16 18 24 28 31 36 37 36 35 34 35 35 35 35 36 36 37 41 47 52 52 49 41 40 48 50 47 41 36 31 29 29 28 29 29 29 28 26 26 27 28 27 27 27 27 26 25 24 24 23 22 21 20 19 19 19 20 21 22 23 25 26 26
9 10 11 11 11 12 11 11 10 10 11 9 9 10 8 9 9 8 9 8 9 10 10 11 11 11 12 13 13 15 14 13 14 15 16 19 30 34 33 35 35 37 36 35 36 36 35 35 35 35 37 37 41 45 50 53 46 40 43 49 48 41 40 36 30 30 28 29 30 30 29 27 26 27 28 28 28 28 27 27 27 27 26 26 25 24 24 23 23 23 23 24 26 26 27 28 28
9 10 10 10 10 11 11 10 10 10 10 9 9 9 8 9 9 9 9 9 10 10 11 11 11 11 12 12 13 13 13 14 14 14 15 18 28 34 35 36 35 36 37 37 37 37 35 34 35 35 35 36 37 41 45 48 44 39 41 49 49 40 40 40 34 32 30 30 30 30 31 29 27 26 28 28 28 28 28 28 28 28 28 28 27 27 26 26 26 26 27 27 28 29 29 29 29
9 11 11 11 11 11 10 9 9 9 9 8 8 8 8 9 9 9 9 9 10 10 11 11 11 12 12 12 13 13 13 14 14 14 14 15 20 26 32 34 35 36 34 36 37 37 36 33 34 36 36 36 36 38 39 41 41 40 41 46 47 41 39 39 36 35 34 33 32 33 34 34 30 26 28 29 29 29 28 28 28 29 29 29 29 29 29 29 29 29 29 30 30 31 31 31 31
9 11 12 11 11 10 9 8 8 8 8 7 8 8 8 9 9 9 9 9 10 10 11 11 11 11 12 12 12 13 13 13 13 14 14 14 15 18 23 26 30 32 31 33 35 35 34 32 33 35 36 36 36 37 38 39 40 40 40 42 43 41 39 39 38 38 38 36 36 37 37 38 34 29 29 31 31 30 30 29 29 30 31 31 31 31 31 31 31 31 32 32 32 33 33 33 33
9 9 10 10 10 9 8 8 8 8 8 8 8 9 8 9 9 10 9 9 10 10 11 11 12 12 12 12 12 12 12 12 13 13 14 14 15 16 18 21 24 28 30 29 29 30 30 29 31 33 33 34 34 36 39 39 39 39 39 40 42 42 41 40 39 39 40 40 39 39 39 40 37 33 32 33 33 32 32 32 32 32 32 33 33 33 33 32 32 33 34 35 35 34 34 35 34
8 8 9 10 9 8 8 8 9 8 8 8 8 8 8 9 10 10 9 9 10 12 12 12 13 13 13 12 12 12 12 13 13 13 14 14 15 15 18 23 22 24 26 23 22 24 26 29 31 32 33 33 33 35 37 39 39 39 39 39 41 41 41 40 41 41 42 43 44 42 41 41 38 36 35 35 36 35 35 35 35 34 34 35 35 35 35 34 35 36 37 37 35 34 34 35 35
8 9 8 9 9 8 8 9 8 9 8 8 8 8 9 10 10 9 10 9 10 12 12 11 12 12 13 13 13 14 14 14 14 13 13 14 14 14 17 21 21 20 21 20 20 21 22 27 29 30 33 34 35 36 36 38 38 38 38 39 40 40 40 40 41 42 42 44 46 44 42 41 39 39 38 38 37 38 38 37 37 36 37 37 37 37 37 37 38 39 39 38 36 35 35 36 35
8 9 8 8 9 8 9 9 9 9 9 8 9 9 9 9 9 10 10 9 10 10 11 11 11 12 13 13 13 14 15 15 15 15 14 14 14 15 15 18 20 19 18 18 20 20 19 25 30 30 31 33 34 36 37 37 38 39 39 39 40 39 38 39 40 41 42 43 45 45 43 42 41 41 41 40 40 41 41 40 38 38 38 40 41 40 40 39 40 40 40 39 37 36 36 36 35
7 8 8 9 9 9 9 9 9 9 9 9 9 9 9 9 10 10 10 10 9 10 10 11 11 11 12 12 13 14 15 15 16 16 15 15 15 15 15 17 18 17 17 17 18 19 19 23 30 29 29 30 29 32 35 35 36 38 40 41 41 41 40 40 40 41 42 43 44 44 44 43 43 42 41 42 41 43 44 41 40 40 40 42 45 44 42 41 41 42 42 40 38 36 36 36 34
8 8 8 9 9 9 9 9 9 10 9 10 9 9 9 10 10 9 10 10 9 10 10 10 11 11 12 12 13 14 15 15 16 16 16 16 16 16 16 16 17 16 16 16 16 19 19 19 22 24 27 28 29 35 37 37 38 36 37 41 42 42 42 40 41 42 42 42 43 43 43 44 43 43 43 42 41 42 43 40 40 43 42 44 48 47 44 43 43 42 42 40 38 37 37 36 34
9 8 8 9 9 9 10 9 9 10 10 10 9 9 9 10 10 9 9 10 9 10 11 11 11 11 12 12 13 13 14 15 15 15 15 16 16 16 17 16 17 17 16 17 17 18 19 19 19 21 25 27 32 39 38 38 41 35 32 37 41 43 43 41 41 40 40 41 42 42 42 43 44 43 43 44 42 42 42 39 40 42 43 45 50 51 48 46 45 43 42 41 39 38 37 36 34
9 9 9 9 9 10 9 9 10 10 10 10 10 9 10 11 11 9 10 10 10 11 11 12 12 11 12 13 13 13 13 14 14 15 15 15 16 16 16 17 17 18 17 18 18 18 18 19 20 21 23 26 30 34 33 35 41 37 30 34 40 44 45 43 42 40 40 42 42 41 42 42 42 42 43 45 43 42 42 41 40 41 43 45 50 54 54 49 46 44 42 41 40 39 37 37 35
10 9 10 9 9 9 9 9 10 10 10 11 11 10 10 10 10 10 11 11 11 12 12 12 12 12 12 13 14 14 14 14 14 15 15 15 16 16 16 17 17 17 18 18 18 18 19 19 19 20 22 24 25 27 29 31 35 34 30 36 43 45 47 46 44 42 40 44 44 42 45 45 41 40 43 45 44 44 43 42 41 42 44 45 49 55 56 52 47 44 43 42 42 41 38 37 36
10 10 10 11 10 10 10 10 11 10 11 11 12 12 11 11 10 10 11 12 12 12 12 12 12 12 13 13 13 13 13 14 14 15 15 15 15 16 16 17 17 18 18 18 18 18 18 19 19 20 20 21 22 24 25 26 29 30 29 38 45 44 45 45 44 41 40 44 44 44 48 49 44 40 41 44 45 45 43 43 44 44 46 47 50 54 54 51 47 45 44 44 43 42 39 37 36
11 11 10 12 14 13 12 11 11 11 11 12 12 13 12 12 12 11 11 12 12 12 12 12 12 12 13 13 13 12 13 13 14 14 15 15 15 16 16 16 17 17 18 18 18 18 18 18 19 20 20 20 21 22 23 24 25 28 28 36 44 45 45 44 43 39 40 43 40 42 48 49 45 42 42 44 45 44 44 44 45 46 47 49 52 53 52 50 47 45 45 45 43 42 41 38 37
11 12 13 13 13 15 15 13 12 11 12 13 13 13 12 11 12 12 11 12 12 13 12 12 12 12 12 12 12 12 13 13 13 14 14 15 16 16 16 16 17 17 17 17 18 18 18 19 19 19 20 20 21 22 24 24 25 27 29 33 39 42 44 45 43 39 42 44 39 40 47 48 46 44 45 45 44 43 43 44 45 47 47 49 53 52 50 48 45 43 43 44 44 43 41 39 38
12 12 15 16 13 14 16 13 12 13 13 13 13 13 13 12 11 11 11 12 12 12 12 12 12 12 12 12 12 12 12 12 12 13 14 15 16 16 16 16 17 17 17 17 17 18 18 19 19 19 19 20 21 22 23 24 25 27 29 32 33 34 38 41 40 38 45 49 44 43 47 48 47 48 48 47 46 44 43 43 45 47 47 51 58 57 51 46 42 41 42 43 45 44 42 40 40
15 13 14 18 16 13 14 14 14 13 13 14 13 13 12 11 10 10 11 11 12 11 11 11 11 11 11 11 11 11 11 12 12 12 13 14 15 16 17 17 17 17 17 17 17 18 18 18 18 19 19 19 20 21 22 23 25 25 28 31 30 29 32 34 32 35 43 46 45 47 49 48 49 51 49 47 48 47 45 44 45 47 47 50 59 60 53 46 42 42 44 45 45 46 44 41 41
16 15 14 16 15 12 13 14 14 13 13 13 13 12 11 10 10 10 10 10 11 11 10 10 10 10 10 10 11 11 12 12 12 12 12 13 14 15 16 17 17 17 17 18 17 18 18 18 18 19 19 20 20 21 21 22 24 24 25 27 28 28 29 30 28 30 35 39 45 50 51 48 49 51 48 46 49 50 48 47 46 48 47 49 54 55 52 49 45 43 44 46 45 46 45 44 45
14 15 15 14 14 12 12 13 14 13 13 13 12 11 11 10 10 9 9 10 9 10 10 10 10 10 10 10 11 11 12 12 12 12 12 13 13 14 15 16 17 17 18 18 18 18 18 19 19 19 19 20 20 21 21 21 23 24 24 24 25 25 26 27 26 26 29 35 45 50 49 47 46 47 46 45 50 51 49 48 48 48 49 49 50 54 58 52 47 47 46 45 46 46 47 48 48
12 13 13 13 13 13 13 13 14 14 13 12 11 11 11 10 9 9 9 9 9 9 9 10 11 10 11 10 10 10 11 11 11 12 12 12 13 14 14 16 16 17 18 18 18 18 19 19 19 20 20 20 20 20 20 21 21 22 23 24 24 24 24 25 25 25 26 33 45 49 49 48 44 44 45 45 50 52 47 46 48 49 50 50 50 59 65 55 51 58 54 47 47 46 47 49 50
12 12 14 14 14 14 14 14 14 15 13 12 11 11 11 10 9 9 9 9 9 9 9 10 10 10 10 10 11 11 11 11 12 11 12 12 13 13 14 15 15 16 17 18 18 18 19 19 20 20 20 20 20 20 20 20 20 22 23 23 24 24 24 25 24 25 26 31 42 48 51 49 44 44 46 45 47 48 48 49 49 51 52 51 52 57 61 53 52 60 57 49 48 48 48 50 56
13 14 15 16 16 14 14 15 15 15 14 12 12 12 11 10 9 9 9 9 9 9 9 9 9 9 10 10 10 11 11 12 13 12 12 12 12 13 14 14 15 16 16 17 18 18 19 19 20 20 20 20 20 20 21 21 21 21 22 22 24 25 25 25 25 25 26 30 40 46 48 47 45 46 46 45 47 49 51 52 51 53 53 52 53 56 58 55 52 53 52 50 48 49 49 51 60
14 15 17 17 17 15 15 17 17 15 14 13 14 14 12 10 10 9 9 9 8 9 9 10 10 10 10 10 10 11 12 13 13 13 13 13 13 13 13 14 14 15 16 16 17 18 19 19 20 20 20 21 21 21 21 21 21 21 22 22 23 24 25 25 26 26 27 30 37 42 44 45 48 50 47 45 50 53 53 53 53 54 53 56 60 62 61 58 54 51 51 52 51 52 51 52 63
16 16 16 16 18 17 15 17 16 15 15 15 15 15 12 10 9 9 9 10 9 9 10 10 11 10 9 10 11 11 11 11 12 13 14 14 14 14 14 14 15 15 16 16 17 18 19 20 20 20 20 21 21 22 22 21 22 22 22 22 23 23 24 25 26 27 28 30 34 39 45 50 52 53 51 47 51 54 55 55 55 55 56 64 71 70 65 59 55 52 53 54 52 53 52 54 66
18 18 16 14 16 17 15 17 16 15 16 19 18 16 12 10 9 9 8 9 9 9 10 10 10 9 9 10 10 10 10 10 11 12 13 14 14 14 14 14 14 15 16 17 17 18 19 20 20 20 20 20 21 22 22 22 22 23 22 22 22 23 24 25 26 27 28 30 32 37 45 52 54 53 51 49 52 55 56 57 57 57 56 63 69 68 63 59 56 54 55 55 54 55 54 54 65
18 21 19 15 15 17 17 17 17 17 19 21 19 17 15 12 9 9 8 8 8 8 9 9 9 9 9 10 10 11 11 12 12 12 12 13 14 14 14 14 14 15 16 17 18 19 20 21 21 21 20 20 21 21 22 23 23 23 24 24 24 24 24 25 27 28 28 29 33 36 40 44 48 50 49 52 55 56 57 56 56 56 55 56 58 59 58 56 56 56 58 57 56 57 55 55 64
20 25 22 16 16 18 18 18 18 18 19 19 17 18 21 18 11 8 9 9 8 8 8 8 9 9 9 9 10 12 13 13 13 12 12 12 13 13 14 14 14 15 17 18 19 19 21 21 22 22 22 21 21 21 22 24 24 25 26 27 27 27 27 28 28 29 30 30 34 38 38 40 44 48 51 55 58 58 57 55 54 55 54 54 53 54 55 55 56 57 59 60 60 59 56 56 63
24 26 22 18 18 19 19 19 18 19 20 20 20 21 23 20 13 9 10 10 9 8 7 7 7 8 9 10 10 11 11 12 12 12 13 12 13 13 13 14 15 15 17 18 20 21 21 22 23 23 23 23 23 23 23 24 25 26 27 28 29 29 30 30 31 32 32 34 38 41 42 43 47 51 54 56 57 59 58 56 55 55 55 54 53 52 54 56 57 58 58 60 61 61 59 58 61
24 24 21 20 20 19 20 19 18 20 23 23 24 22 20 17 12 9 11 10 9 8 7 7 7 9 10 10 10 11 11 12 12 12 13 13 13 13 14 14 15 16 17 19 20 21 22 23 24 24 24 25 25 25 25 26 26 27 28 28 29 29 30 31 31 33 34 37 43 46 45 46 50 54 55 56 58 59 60 59 58 57 56 56 55 53 55 56 57 58 57 57 58 59 59 60 63
23 23 21 21 21 20 20 19 19 21 21 22 25 22 18 17 13 10 11 10 8 8 7 7 8 10 10 9 9 11 11 12 13 13 13 14 14 14 14 14 15 17 18 19 20 21 22 23 24 25 25 26 26 26 26 27 27 28 28 29 29 29 30 30 31 32 34 38 44 49 49 48 51 55 55 56 58 59 60 61 60 59 57 55 55 55 55 57 58 58 57 58 58 58 60 62 65
24 23 22 22 22 22 20 22 25 22 19 22 25 22 20 19 14 10 10 9 8 9 8 8 9 9 10 10 10 11 12 12 13 13 14 14 14 15 15 15 16 17 18 19 21 22 22 23 25 25 26 26 26 26 27 28 28 29 29 30 30 30 30 31 31 31 33 38 45 50 49 47 49 53 55 55 57 59 59 60 60 59 57 56 57 57 57 59 60 59 58 61 62 59 60 64 66
25 24 24 22 22 22 22 25 27 22 20 24 24 22 21 16 11 11 11 9 8 8 8 9 9 9 10 10 11 12 12 11 12 13 14 14 15 15 15 15 16 17 18 19 20 22 23 24 25 26 26 26 26 26 27 28 29 29 29 30 30 31 31 32 33 34 34 37 43 46 45 43 46 50 53 54 56 57 57 59 60 60 58 57 57 56 56 60 62 61 61 64 64 61 61 64 66
24 24 24 22 19 21 23 23 23 20 21 24 23 23 20 13 9 11 10 8 8 8 9 11 11 11 11 11 12 13 12 12 12 13 14 14 15 15 15 15 16 17 18 19 20 21 23 24 24 26 26 27 27 27 28 28 28 29 29 30 31 31 31 31 33 35 36 39 43 44 43 45 47 49 52 55 54 55 57 59 60 60 59 58 57 55 56 61 63 63 62 64 65 63 63 66 66
22 20 22 22 18 19 21 21 21 20 21 24 25 22 17 13 11 11 10 10 10 10 10 10 10 11 12 12 11 11 12 13 14 13 14 14 15 15 15 15 16 17 18 18 20 22 23 24 24 26 27 27 28 28 28 29 29 29 29 30 30 31 31 31 32 35 38 45 48 46 45 48 50 51 53 53 52 54 57 59 59 60 60 60 60 58 57 60 64 65 64 66 67 66 66 67 67
22 21 25 25 20 17 19 21 22 21 22 23 25 21 13 11 11 10 11 11 10 11 11 11 10 10 12 12 10 11 13 14 14 14 14 14 15 15 15 15 16 17 18 19 21 23 23 24 25 26 27 28 28 29 29 29 30 29 29 30 30 31 31 31 32 34 39 48 51 48 47 51 51 50 51 51 53 55 57 58 58 60 61 61 60 60 59 60 64 66 66 68 68 67 68 69 69
24 24 26 24 20 20 21 23 24 23 22 20 20 19 13 10 10 8 8 9 9 10 10 10 11 10 11 11 10 11 12 13 14 14 14 14 15 15 15 15 17 18 18 19 22 23 24 24 25 26 27 28 29 29 29 30 30 30 30 30 30 30 31 32 33 35 39 45 49 49 50 52 52 52 52 51 53 57 58 58 59 60 60 61 60 60 60 61 64 67 68 69 69 68 69 70 69
26 27 24 20 21 23 21 24 25 25 24 20 16 17 14 13 12 9 9 10 10 9 9 10 10 10 11 11 11 11 12 14 15 15 15 15 15 16 16 16 18 19 20 21 22 23 25 25 25 27 27 28 29 29 29 30 30 31 31 30 30 30 31 32 33 35 38 41 47 51 51 52 53 55 54 51 53 57 58 59 59 59 60 62 61 60 61 62 64 67 69 70 70 69 71 71 70
27 27 26 24 26 25 23 25 26 26 26 23 19 17 16 15 12 9 10 11 10 10 9 9 9 10 12 13 13 14 14 15 15 15 16 16 17 17 17 18 19 20 22 23 23 24 25 27 27 27 28 28 29 29 29 30 30 31 31 31 31 31 31 32 33 35 37 41 47 50 50 51 54 55 53 52 55 58 59 58 59 59 60 61 62 61 62 63 65 68 69 71 70 69 69 70 69
29 29 29 29 29 26 25 26 24 23 25 24 22 19 17 15 10 9 10 10 10 10 9 10 11 11 12 13 15 16 15 15 15 16 16 17 18 19 19 19 20 22 24 24 25 25 25 27 28 28 29 30 30 30 29 30 30 31 32 32 32 32 32 32 32 33 36 40 46 49 50 52 53 52 52 55 58 59 59 59 60 60 60 60 61 62 62 64 66 68 70 71 68 64 65 67 66
32 32 32 32 31 29 30 30 26 24 24 24 23 21 16 12 11 11 11 10 11 11 11 11 12 12 12 13 15 15 14 15 16 17 18 19 20 20 21 21 22 23 25 25 25 25 26 28 29 29 30 31 31 31 31 31 31 31 32 33 33 33 33 33 33 33 35 38 44 50 52 51 51 51 54 57 58 59 60 60 61 62 62 60 61 62 63 65 66 68 70 68 61 58 62 65 63
31 31 30 29 29 31 35 34 30 29 28 25 26 25 18 11 11 11 10 11 11 12 12 12 12 13 14 14 14 14 14 16 17 18 19 21 22 22 22 23 24 25 25 26 27 26 27 29 30 30 31 32 32 32 32 32 32 32 33 33 33 34 35 35 35 35 36 38 41 47 50 49 50 53 56 57 58 59 60 61 62 63 63 63 62 63 64 66 66 68 69 63 56 57 64 65 61